User: anonymous   Login
Location: Unspecified
(0.0000°N, 0.0000°E)
Time: 10:17:32
(UTC+02:00)
Language:

ASC 2 Rocket - Orbit

View from above orbital plane
View from above orbital plane
View from above satellite
View from above satellite

Ground track
Ground track

The orbit data is extracted from the following two-line orbital elements,

1 21228U 91028B   15213.55922147  .00000247  00000-0  44662-4 0  9991
2 21228 023.9967 321.6698 1143928 352.2330 096.3732 12.53138609111702
Epoch (UTC): 01 August 2015 13:25:16
Eccentricity: 0.1143928
inclination: 23.9967°
perigee height: 556 km
apogee height: 2347 km
right ascension of ascending node: 321.6698°
argument of perigee: 352.2330°
revolutions per day: 12.53138609
mean anomaly at epoch: 96.3732°
orbit number at epoch: 11170

The dashed part of the orbit path shows where the satellite is in the earth's shadow,  

DLR